[[{"header":{"parameterUnit":"m.s-1","parameterCategory":1,"la1":30.2991,"la2":30.254,"lo1":-89.0895,"lo2":-89.0444,"dy":0.0017,"dx":0.0017,"nx":28,"ny":28,"refTime":"2023-08-28T03:00:00:Z","depth":0,"parameterNumber":2,"parameterNumberName":"U-component_of_WINDS"},"data":[0,0,0,0,0,0,0,0,0,0,0,0,0,0,0,0,0,0,0,0,0,0,0,0,0,0,0,0,0,0,0,0,0,0,0,0,0,0,0,0,0,0,0,0,0,0,0,0,0,0,0,0,0,0,0,0,0,0,-1.0742,-1.0741,0,-1.0665,-1.0664,-1.0663,-1.063,-1.063,-1.063,-1.063,-1.0551,-1.0549,-1.0547,0,0,0,0,0,0,0,0,0,0,0,0,0,-1.0861,-1.0859,-1.0742,-1.0741,-1.074,-1.0665,-1.0664,-1.0663,-1.063,-1.063,-1.063,-1.063,-1.0552,-1.0549,-1.0547,0,0,0,0,0,0,0,0,0,0,0,0,0,-1.0799,-1.0858,-1.0742,-1.0714,-1.0711,-1.0665,-1.0664,-1.0662,-1.063,-1.063,-1.063,-1.063,-1.0553,-1.055,-1.0546,-1.0522,0,0,-1.0536,-1.0535,0,0,0,0,0,0,0,0,-1.0803,-1.0795,-1.0719,-1.0716,-1.0712,-1.0657,-1.0677,-1.0615,-1.063,-1.0661,-1.063,-1.063,-1.0586,-1.058,-1.0565,-1.0518,-1.0515,-1.0536,-1.0534,-1.0533,-1.0532,0,0,0,0,0,0,0,-1.0807,-1.0798,-1.0711,-1.0718,-1.0714,-1.0706,-1.0697,-1.0665,-1.0623,-1.0658,-1.0655,-1.0647,-1.0584,-1.0569,-1.0563,-1.0514,-1.0536,-1.0533,-1.0531,-1.053,-1.0443,-1.0443,0,0,0,0,0,0,-1.0816,-1.0802,-1.0714,-1.0709,-1.0759,-1.0704,-1.0694,-1.0675,-1.0624,-1.0616,-1.0647,-1.0645,-1.0574,-1.0567,-1.056,-1.0529,-1.0533,-1.0529,-1.0527,-1.0444,-1.0443,-1.0443,0,0,0,0,0,0,-1.0818,-1.0808,-1.0717,-1.0755,-1.0742,-1.0702,-1.068,-1.0673,-1.0657,-1.0615,-1.0608,-1.0638,-1.0574,-1.0565,-1.0532,-1.0525,-1.0528,-1.0525,-1.0444,-1.0444,-1.0443,-1.0465,0,0,0,0,0,0,-1.0822,-1.0809,-1.0799,-1.0755,-1.074,-1.0689,-1.0679,-1.0671,-1.0652,-1.0649,-1.0605,-1.0598,-1.0574,-1.0537,-1.0529,-1.0521,-1.0522,-1.0444,-1.0444,-1.0443,-1.0465,-1.0465,-1.0466,0,0,0,0,0,-1.0826,-1.0809,-1.0799,-1.0789,-1.0727,-1.0689,-1.0681,-1.0653,-1.0651,-1.0641,-1.0614,-1.0599,-1.0528,-1.0534,-1.0524,-1.0515,-1.0445,-1.0444,-1.0443,-1.0464,-1.0465,-1.0466,0,0,0,0,0,0,-1.0854,-1.0802,-1.0791,-1.0758,-1.0728,-1.0684,-1.067,-1.0655,-1.0625,-1.0624,-1.0592,-1.0582,-1.0552,-1.053,-1.0538,-1.0489,-1.0485,-1.0482,-1.0504,-1.0505,-1.0505,-1.0511,-1.052,0,0,0,0,0,-1.0856,-1.0829,-1.0786,-1.0761,-1.0747,-1.0711,-1.0693,-1.0675,-1.0643,-1.063,-1.06,-1.057,-1.054,-1.0521,-1.0492,-1.0462,-1.0452,-1.0451,-1.0451,-1.0452,-1.045,-1.0433,-1.0432,-1.0441,-1.0441,-1.0441,0,0,-1.0861,-1.0829,-1.0814,-1.0766,-1.074,-1.0714,-1.0701,-1.0673,-1.0652,-1.0625,-1.0592,-1.057,-1.0533,-1.0502,-1.0486,-1.0483,-1.0446,-1.0451,-1.0452,-1.045,-1.0432,-1.0431,-1.043,-1.044,-1.044,-1.044,0,0,-1.0855,-1.0828,-1.0805,-1.078,-1.0741,-1.0718,-1.0712,-1.067,-1.0654,-1.062,-1.0599,-1.0575,-1.0525,-1.05,-1.0481,-1.0466,-1.0452,-1.0458,-1.0461,-1.0444,-1.0443,-1.0443,-1.0437,-1.0436,-1.0456,-1.0456,-1.0456,0,-1.0865,-1.0823,-1.0794,-1.0768,-1.0747,-1.0722,-1.0698,-1.0675,-1.0629,-1.0616,-1.0613,-1.055,-1.0523,-1.0486,-1.0482,-1.0468,-1.046,-1.0462,-1.0446,-1.0445,-1.0444,-1.0438,-1.0436,-1.0457,-1.0457,-1.0457,-1.0457,0,-1.0838,-1.0809,-1.0795,-1.0751,-1.0729,-1.0704,-1.0672,-1.0653,-1.0637,-1.0614,-1.058,-1.0548,-1.0512,-1.0501,-1.0485,-1.0461,-1.0461,-1.0452,-1.0447,-1.0444,-1.0439,-1.0436,-1.0458,-1.0458,-1.0458,-1.0457,0,0,-1.0847,-1.0787,-1.0783,-1.0763,-1.0719,-1.0696,-1.0671,-1.0635,-1.062,-1.0589,-1.0567,-1.0525,-1.0518,-1.0496,-1.0477,-1.0462,-1.0453,-1.0456,-1.0454,-1.0456,-1.0425,-1.0431,-1.0429,-1.0443,-1.0443,-1.0442,-1.0428,0,-1.0835,-1.0786,-1.076,-1.0723,-1.0696,-1.0672,-1.0649,-1.062,-1.0599,-1.0573,-1.0549,-1.052,-1.0512,-1.0499,-1.0484,-1.0457,-1.0446,-1.0458,-1.0422,-1.0421,-1.0431,-1.0426,-1.0433,-1.0421,-1.0426,-1.0425,-1.0425,0,-1.0814,-1.0784,-1.0744,-1.0703,-1.0691,-1.0671,-1.0637,-1.0613,-1.058,-1.0565,-1.0541,-1.0522,-1.0494,-1.0492,-1.0453,-1.0462,-1.0445,-1.0431,-1.0429,-1.0424,-1.0422,-1.0421,-1.0416,-1.0414,-1.0421,-1.0422,-1.0422,0,-1.0824,-1.0774,-1.0743,-1.0727,-1.0679,-1.0665,-1.0645,-1.0612,-1.0592,-1.0562,-1.055,-1.0517,-1.0499,-1.0475,-1.0447,-1.0448,-1.0411,-1.0407,-1.0398,-1.0399,-1.0391,-1.0392,-1.0383,-1.0381,-1.0381,-1.0381,-1.0381,0,-1.0813,-1.079,-1.0747,-1.0728,-1.0702,-1.0672,-1.0646,-1.0624,-1.0595,-1.0572,-1.0549,-1.0528,-1.0494,-1.0469,-1.0447,-1.0418,-1.0411,-1.0398,-1.0392,-1.04,-1.0401,-1.0388,-1.0388,-1.0381,-1.0381,-1.0381,-1.0381,0,-1.082,-1.079,-1.0755,-1.0713,-1.0701,-1.0684,-1.0647,-1.0629,-1.0606,-1.0577,-1.0569,-1.0533,-1.0502,-1.0473,-1.0432,-1.0417,-1.0388,-1.0382,-1.04,-1.0397,-1.039,-1.0391,-1.0372,-1.0368,-1.037,-1.037,-1.037,0,-1.0814,-1.0796,-1.0751,-1.0734,-1.0714,-1.0686,-1.0666,-1.0636,-1.0617,-1.0578,-1.0564,-1.0531,-1.0504,-1.0456,-1.0426,-1.0395,-1.0387,-1.0382,-1.0382,-1.039,-1.0386,-1.0388,-1.0386,-1.0383,-1.0383,-1.0383,-1.0383,0,-1.0808,-1.0794,-1.0766,-1.0733,-1.0709,-1.0682,-1.0654,-1.0641,-1.0606,-1.0585,-1.0553,-1.0532,-1.049,-1.0458,-1.0424,-1.0403,-1.0387,-1.0384,-1.038,-1.0387,-1.0398,-1.0392,-1.0401,-1.0384,-1.0384,-1.0384,-1.0384,-1.0384,-1.0808,-1.079,-1.0756,-1.0726,-1.0701,-1.0676,-1.0656,-1.0631,-1.0603,-1.0567,-1.0551,-1.0519,-1.0487,-1.0439,-1.0418,-1.0393,-1.0389,-1.0384,-1.0383,-1.0382,-1.0383,-1.0403,-1.0387,-1.0387,-1.0387,-1.0387,-1.0387,0,-1.08,-1.0777,-1.0749,-1.071,-1.0687,-1.0674,-1.0642,-1.0623,-1.0595,-1.0566,-1.054,-1.0504,-1.0473,-1.0441,-1.0409,-1.0395,-1.0387,-1.0387,-1.0388,-1.0383,-1.0388,-1.0395,-1.0394,-1.0394,-1.0394,-1.0394,-1.0394,-1.0394,-1.0794,-1.0763,-1.0745,-1.0703,-1.068,-1.0648,-1.0631,-1.0607,-1.0584,-1.0544,-1.0519,-1.0498,-1.0469,-1.0434,-1.0405,-1.0397,-1.0386,-1.0388,-1.0378,-1.0383,-1.0383,-1.0382,-1.0388,-1.0386,-1.0386,-1.0375,-1.0375,-1.0375]},{"header":{"parameterUnit":"m.s-1","parameterCategory":1,"la1":30.2991,"la2":30.254,"lo1":-89.0895,"lo2":-89.0444,"dy":0.0017,"dx":0.0017,"nx":28,"ny":28,"refTime":"2023-08-28T03:00:00:Z","depth":0,"parameterNumber":3,"parameterNumberName":"V-component_of_WINDS"},"data":[0,0,0,0,0,0,0,0,0,0,0,0,0,0,0,0,0,0,0,0,0,0,0,0,0,0,0,0,0,0,0,0,0,0,0,0,0,0,0,0,0,0,0,0,0,0,0,0,0,0,0,0,0,0,0,0,0,0,3.2701,3.2701,0,3.2701,3.2701,3.2701,3.2676,3.2675,3.2675,3.2674,3.2671,3.2672,3.2673,0,0,0,0,0,0,0,0,0,0,0,0,0,3.2677,3.2678,3.2701,3.2701,3.2701,3.2701,3.2701,3.2701,3.2676,3.2675,3.2674,3.2674,3.2671,3.2672,3.2673,0,0,0,0,0,0,0,0,0,0,0,0,0,3.2683,3.2678,3.2701,3.2688,3.2687,3.2701,3.2701,3.2701,3.2676,3.2675,3.2674,3.2673,3.2671,3.2672,3.2673,3.2697,0,0,3.2675,3.2675,0,0,0,0,0,0,0,0,3.2683,3.2684,3.269,3.2689,3.2688,3.2687,3.2692,3.27,3.2676,3.268,3.2674,3.2673,3.2677,3.2678,3.268,3.2697,3.2697,3.2675,3.2676,3.2676,3.2676,0,0,0,0,0,0,0,3.2682,3.2684,3.2701,3.269,3.2689,3.2682,3.2682,3.2693,3.2684,3.268,3.2678,3.2679,3.2677,3.2679,3.2679,3.2697,3.2675,3.2676,3.2676,3.2677,3.2737,3.2738,0,0,0,0,0,0,3.2684,3.2684,3.2701,3.2701,3.2683,3.2684,3.2683,3.2688,3.2684,3.2682,3.2679,3.2677,3.2678,3.2679,3.2679,3.271,3.2676,3.2677,3.2677,3.2736,3.2738,3.2739,0,0,0,0,0,0,3.2684,3.2686,3.2701,3.2692,3.2693,3.2685,3.2691,3.2689,3.2691,3.2684,3.2682,3.2684,3.2677,3.2678,3.2694,3.271,3.2677,3.2678,3.2735,3.2737,3.2738,3.277,0,0,0,0,0,0,3.2683,3.2686,3.2695,3.2692,3.2694,3.2716,3.2692,3.269,3.2693,3.2691,3.2687,3.2686,3.2677,3.2693,3.2695,3.271,3.2679,3.2733,3.2736,3.2738,3.2768,3.2773,3.2777,0,0,0,0,0,3.2682,3.2703,3.2696,3.2698,3.2706,3.2717,3.2717,3.2707,3.2695,3.2704,3.27,3.2686,3.2707,3.2695,3.2696,3.2712,3.2732,3.2735,3.2737,3.2766,3.2772,3.2777,0,0,0,0,0,0,3.2707,3.2702,3.2694,3.2715,3.2717,3.2712,3.2724,3.2714,3.2718,3.2715,3.2702,3.2701,3.272,3.2717,3.2703,3.2737,3.2718,3.2721,3.2738,3.2744,3.2749,3.275,3.2679,0,0,0,0,0,3.2715,3.2725,3.272,3.2739,3.274,3.2732,3.2736,3.2729,3.2729,3.273,3.2726,3.2727,3.2734,3.2738,3.2744,3.2767,3.2767,3.2779,3.2784,3.2788,3.2791,3.2805,3.2811,3.2747,3.2747,3.2747,0,0,3.2731,3.273,3.2737,3.2744,3.2744,3.2755,3.2733,3.2744,3.2752,3.2731,3.2747,3.2744,3.2744,3.2764,3.2772,3.2762,3.2808,3.2791,3.2794,3.2795,3.2808,3.2814,3.282,3.2749,3.2748,3.2748,0,0,3.2767,3.2766,3.2783,3.2784,3.2786,3.2781,3.2785,3.2783,3.2781,3.2796,3.2781,3.279,3.2802,3.2803,3.2805,3.2844,3.2832,3.2846,3.2871,3.2885,3.289,3.2894,3.291,3.2916,3.2849,3.2849,3.2849,0,3.2786,3.2803,3.2792,3.2806,3.281,3.2793,3.281,3.2812,3.2814,3.2818,3.2806,3.2823,3.2821,3.2843,3.2852,3.2854,3.2859,3.2847,3.289,3.2894,3.2898,3.2913,3.2919,3.285,3.285,3.285,3.285,0,3.2828,3.284,3.2853,3.2859,3.2864,3.2879,3.2871,3.2878,3.287,3.2866,3.2883,3.2881,3.2887,3.2891,3.2882,3.2912,3.2906,3.2892,3.2873,3.2907,3.2921,3.2926,3.2853,3.2852,3.2852,3.2851,0,0,3.2879,3.288,3.2885,3.2889,3.289,3.2899,3.2913,3.2921,3.2928,3.293,3.2943,3.2955,3.2943,3.2946,3.2937,3.2949,3.2983,3.2934,3.2934,3.2945,3.3017,3.3029,3.3036,3.2974,3.2975,3.2976,3.3018,0,3.2916,3.2943,3.2934,3.2961,3.2973,3.2957,3.297,3.2973,3.297,3.2979,3.2974,3.2984,3.2967,3.2969,3.298,3.2976,3.2997,3.2973,3.2987,3.2988,3.299,3.3042,3.3054,3.3094,3.3023,3.3024,3.3025,0,3.2962,3.2969,3.2998,3.2999,3.3004,3.3016,3.3023,3.3032,3.3034,3.3031,3.3035,3.3025,3.304,3.3019,3.304,3.3024,3.3029,3.3028,3.3029,3.3032,3.3009,3.3048,3.3106,3.3113,3.3033,3.3032,3.3031,0,3.2999,3.3015,3.3035,3.3038,3.304,3.3049,3.305,3.3051,3.3057,3.3063,3.3067,3.3074,3.3079,3.3084,3.3076,3.3062,3.3099,3.3077,3.3098,3.3098,3.3108,3.3108,3.317,3.3108,3.3108,3.3108,3.3108,0,3.3042,3.3061,3.3053,3.3065,3.3086,3.3076,3.3097,3.3096,3.3098,3.311,3.3095,3.3107,3.3095,3.3105,3.3099,3.3118,3.312,3.3118,3.3117,3.3121,3.3121,3.3125,3.3123,3.3109,3.3109,3.3109,3.3108,0,3.3088,3.3083,3.3104,3.3105,3.3105,3.3121,3.3121,3.3133,3.3129,3.3145,3.3148,3.3142,3.3154,3.3146,3.3157,3.3153,3.3179,3.3172,3.3179,3.3178,3.32,3.3199,3.3268,3.3278,3.3208,3.3209,3.3209,0,3.3116,3.3131,3.3134,3.3142,3.3144,3.3156,3.3163,3.3154,3.3161,3.3167,3.3178,3.3189,3.3197,3.3217,3.3213,3.3222,3.3217,3.324,3.3218,3.3223,3.322,3.322,3.3222,3.3246,3.3246,3.3247,3.3247,0,3.3169,3.3166,3.3177,3.3187,3.3196,3.3203,3.3209,3.3216,3.3207,3.3217,3.3229,3.3236,3.3249,3.326,3.3268,3.3268,3.3257,3.3255,3.326,3.3266,3.327,3.327,3.3194,3.3253,3.3253,3.3252,3.3252,3.3252,3.3208,3.3221,3.3226,3.3239,3.3243,3.325,3.3262,3.326,3.3271,3.3282,3.3276,3.3291,3.3295,3.3304,3.3306,3.3318,3.3309,3.3316,3.3319,3.3321,3.3326,3.3267,3.3319,3.3319,3.3319,3.3319,3.3319,0,3.3262,3.3265,3.3277,3.3287,3.3297,3.3286,3.3293,3.3302,3.3317,3.3321,3.3331,3.3346,3.3358,3.3356,3.3366,3.3376,3.3372,3.338,3.338,3.3381,3.3332,3.3328,3.3384,3.3384,3.3384,3.3384,3.3384,3.3384,3.3291,3.3314,3.3312,3.3337,3.3339,3.3356,3.3361,3.3367,3.3371,3.339,3.34,3.3399,3.3401,3.3412,3.3422,3.3421,3.3427,3.3437,3.3435,3.339,3.3384,3.3378,3.3373,3.3438,3.3438,3.3482,3.3483,3.3483]}]]